Weather History for KIDI - November, 2012

Change the Weather History Date:

Monday, November 5, 2012

  Actual Average Record
Temperature  
Mean Temperature 34 °F -  
Max Temperature 37 °F 53 °F 78 °F (1959)
Min Temperature 30 °F 34 °F 9 °F (1991)
Degree Days  
Heating Degree Days 30    
Moisture  
Dew Point 28 °F    
Average Humidity 77    
Maximum Humidity 87    
Minimum Humidity 70    
Precipitation  
Precipitation 0.00 in - - ()
Sea Level Pressure  
Sea Level Pressure 30.11 in    
Wind  
Wind Speed 2 mph (NNW)    
Max Wind Speed 8 mph    
Max Gust Speed -    
Visibility 10 miles    
Events      
Averages and records for this station are not official NWS values.
T = Trace of Precipitation, MM = Missing Value Source: NWS Daily Summary

Daily Weather History Graph

Daily Weather History Graph

Search for Another Location

Airport or City:

Trip Planner

Search our weather history database for the weather conditions in past years. The results will help you decide how hot, cold, wet, or windy it might be!

Date:

Astronomy

Nov. 05, 2012 Rise Set
Actual Time 6:51 AM EST 5:07 PM EST
Civil Twilight 6:23 AM EST 5:36 PM EST
Nautical Twilight 5:50 AM EST 6:08 PM EST
Astronomical Twilight 5:18 AM EST 6:40 PM EST
Moon 10:43 PM EST 12:10 PM EST
Length of Visible Light 11h 13m
Length of Day
10h 15m
Waning Gibbous, 63% of the Moon is Illuminated
Nov 5
Waning Gibbous
Nov 6
Last Quarter
Nov 13
New
Nov 20
First Quarter
Nov 28
Full

Hourly Weather History & Observations

Time (EST) Temp. Windchill Dew Point Humidity Pressure Visibility Wind Dir Wind Speed Gust Speed Precip Events Conditions
12:15 AM 33.8 °F - 28.4 °F 81% 30.07 in 10.0 mi Calm Calm - N/A   Unknown
12:35 AM 33.8 °F 29.6 °F 28.4 °F 81% 30.07 in 10.0 mi NW 4.6 mph - N/A   Unknown
12:55 AM 33.8 °F 30.8 °F 28.4 °F 81% 30.07 in 10.0 mi NW 3.5 mph - N/A   Unknown
1:15 AM 33.8 °F 30.8 °F 28.4 °F 81% 30.07 in 10.0 mi NW 3.5 mph - N/A   Unknown
1:35 AM 33.8 °F 30.8 °F 28.4 °F 81% 30.07 in 10.0 mi NW 3.5 mph - N/A   Unknown
1:55 AM 33.8 °F - 28.4 °F 81% 30.07 in 10.0 mi Calm Calm - N/A   Unknown
2:15 AM 33.8 °F - 28.4 °F 81% 30.07 in 10.0 mi Calm Calm - N/A   Unknown
2:35 AM 33.8 °F - 28.4 °F 81% 30.07 in 10.0 mi Calm Calm - N/A   Unknown
2:55 AM 33.8 °F - 28.4 °F 81% 30.07 in 10.0 mi Calm Calm - N/A   Unknown
3:15 AM 33.8 °F - 28.4 °F 81% 30.06 in 10.0 mi Calm Calm - N/A   Unknown
3:35 AM 33.8 °F - 30.2 °F 87% 30.06 in 10.0 mi Calm Calm - N/A   Unknown
3:55 AM 33.8 °F - 30.2 °F 87% 30.06 in 10.0 mi Calm Calm - N/A   Unknown
4:15 AM 33.8 °F - 30.2 °F 87% 30.07 in 10.0 mi Calm Calm - N/A   Unknown
4:35 AM 33.8 °F - 30.2 °F 87% 30.07 in 10.0 mi Calm Calm - N/A   Unknown
5:15 AM 33.8 °F - 30.2 °F 87% 30.08 in 10.0 mi Calm Calm - N/A   Unknown
5:35 AM 33.8 °F - 30.2 °F 87% 30.09 in 10.0 mi Calm Calm - N/A   Unknown
5:55 AM 33.8 °F - 30.2 °F 87% 30.09 in 10.0 mi Calm Calm - N/A   Unknown
6:15 AM 33.8 °F - 30.2 °F 87% 30.09 in 10.0 mi Calm Calm - N/A   Unknown
6:35 AM 33.8 °F 28.6 °F 30.2 °F 87% 30.10 in 10.0 mi NNW 5.8 mph - N/A   Unknown
7:15 AM 33.8 °F 30.8 °F 28.4 °F 81% 30.10 in 10.0 mi NW 3.5 mph - N/A   Unknown
7:35 AM 33.8 °F 30.8 °F 28.4 °F 81% 30.11 in 10.0 mi NW 3.5 mph - N/A   Unknown
7:55 AM 33.8 °F - 28.4 °F 81% 30.12 in 10.0 mi Calm Calm - N/A   Unknown
8:15 AM 35.6 °F 31.7 °F 28.4 °F 75% 30.12 in 10.0 mi NW 4.6 mph - N/A   Unknown
8:35 AM 35.6 °F - 28.4 °F 75% 30.12 in 10.0 mi Calm Calm - N/A   Unknown
8:55 AM 35.6 °F - 30.2 °F 81% 30.12 in 10.0 mi Calm Calm - N/A   Unknown
9:15 AM 35.6 °F 30.7 °F 30.2 °F 81% 30.12 in 10.0 mi NW 5.8 mph - N/A   Unknown
9:35 AM 35.6 °F 30.7 °F 30.2 °F 81% 30.12 in 10.0 mi NNW 5.8 mph - N/A   Unknown
9:55 AM 35.6 °F 32.8 °F 30.2 °F 81% 30.12 in 10.0 mi NNW 3.5 mph - N/A   Unknown
10:15 AM 35.6 °F 29.9 °F 28.4 °F 75% 30.12 in 10.0 mi NNW 6.9 mph - N/A   Unknown
10:35 AM 35.6 °F 30.7 °F 28.4 °F 75% 30.12 in 10.0 mi NNW 5.8 mph - N/A   Unknown
10:55 AM 35.6 °F 31.7 °F 28.4 °F 75% 30.12 in 10.0 mi NNW 4.6 mph - N/A   Unknown
11:15 AM 37.4 °F 31.4 °F 28.4 °F 70% 30.12 in 10.0 mi North 8.1 mph - N/A   Unknown
11:35 AM 37.4 °F 32.8 °F 28.4 °F 70% 30.12 in 10.0 mi NNW 5.8 mph - N/A   Unknown
11:55 AM 37.4 °F 31.4 °F 28.4 °F 70% 30.12 in 10.0 mi NNW 8.1 mph - N/A   Unknown
12:15 PM 37.4 °F 33.8 °F 28.4 °F 70% 30.12 in 10.0 mi North 4.6 mph - N/A   Unknown
12:35 PM 37.4 °F 32.8 °F 28.4 °F 70% 30.11 in 10.0 mi NW 5.8 mph - N/A   Unknown
12:55 PM 37.4 °F 33.8 °F 28.4 °F 70% 30.11 in 10.0 mi NNW 4.6 mph - N/A   Unknown
1:15 PM 37.4 °F 32.8 °F 28.4 °F 70% 30.11 in 10.0 mi North 5.8 mph - N/A   Unknown
1:35 PM 37.4 °F 31.4 °F 28.4 °F 70% 30.10 in 10.0 mi NNW 8.1 mph - N/A   Unknown
1:55 PM 37.4 °F 32.1 °F 28.4 °F 70% 30.10 in 10.0 mi NNW 6.9 mph - N/A   Unknown
2:15 PM 37.4 °F 32.8 °F 28.4 °F 70% 30.10 in 10.0 mi NNW 5.8 mph - N/A   Unknown
2:35 PM 37.4 °F 34.9 °F 28.4 °F 70% 30.10 in 10.0 mi North 3.5 mph - N/A   Unknown
2:55 PM 37.4 °F 32.1 °F 28.4 °F 70% 30.10 in 10.0 mi NW 6.9 mph - N/A   Unknown
3:15 PM 37.4 °F 32.8 °F 28.4 °F 70% 30.10 in 10.0 mi NW 5.8 mph - N/A   Unknown
3:35 PM 37.4 °F 34.9 °F 28.4 °F 70% 30.10 in 10.0 mi NNW 3.5 mph - N/A   Unknown
3:55 PM 37.4 °F 34.9 °F 28.4 °F 70% 30.10 in 10.0 mi NNW 3.5 mph - N/A   Unknown
4:15 PM 37.4 °F 33.8 °F 28.4 °F 70% 30.11 in 10.0 mi NNW 4.6 mph - N/A   Unknown
4:35 PM 35.6 °F - 28.4 °F 75% 30.11 in 10.0 mi Calm Calm - N/A   Unknown
4:55 PM 35.6 °F 31.7 °F 28.4 °F 75% 30.11 in 10.0 mi North 4.6 mph - N/A   Unknown
5:15 PM 35.6 °F 32.8 °F 28.4 °F 75% 30.11 in 10.0 mi NNW 3.5 mph - N/A   Unknown
5:35 PM 35.6 °F 32.8 °F 28.4 °F 75% 30.12 in 10.0 mi NW 3.5 mph - N/A   Unknown
5:55 PM 35.6 °F - 26.6 °F 70% 30.12 in 10.0 mi Calm Calm - N/A   Unknown
6:15 PM 35.6 °F - 28.4 °F 75% 30.13 in 10.0 mi Calm Calm - N/A   Unknown
6:35 PM 35.6 °F - 26.6 °F 70% 30.13 in 10.0 mi Calm Calm - N/A   Unknown
6:55 PM 35.6 °F - 26.6 °F 70% 30.13 in 10.0 mi Calm Calm - N/A   Unknown
7:15 PM 35.6 °F - 26.6 °F 70% 30.14 in 10.0 mi Calm Calm - N/A   Unknown
7:35 PM 33.8 °F - 26.6 °F 75% 30.13 in 10.0 mi Calm Calm - N/A   Unknown
7:55 PM 33.8 °F 30.8 °F 26.6 °F 75% 30.14 in 10.0 mi ENE 3.5 mph - N/A   Unknown
8:15 PM 33.8 °F - 26.6 °F 75% 30.14 in 10.0 mi Calm Calm - N/A   Unknown
8:35 PM 33.8 °F - 26.6 °F 75% 30.14 in 10.0 mi Calm Calm - N/A   Unknown
8:55 PM 33.8 °F - 26.6 °F 75% 30.16 in 10.0 mi Calm Calm - N/A   Unknown
9:15 PM 33.8 °F - 26.6 °F 75% 30.16 in 10.0 mi Calm Calm - N/A   Unknown
9:35 PM 33.8 °F - 26.6 °F 75% 30.16 in 10.0 mi Calm Calm - N/A   Unknown
9:55 PM 33.8 °F - 26.6 °F 75% 30.16 in 10.0 mi Calm Calm - N/A   Unknown
10:15 PM 33.8 °F - 26.6 °F 75% 30.16 in 10.0 mi Calm Calm - N/A   Unknown
10:35 PM 33.8 °F - 26.6 °F 75% 30.15 in 10.0 mi Calm Calm - N/A   Unknown
10:55 PM 33.8 °F - 24.8 °F 70% 30.15 in 10.0 mi Calm Calm - N/A   Unknown
11:15 PM 33.8 °F - 26.6 °F 75% 30.15 in 10.0 mi Calm Calm - N/A   Unknown
11:35 PM 32.0 °F - 24.8 °F 75% 30.14 in 10.0 mi Calm Calm - N/A   Unknown
11:55 PM 30.2 °F - 26.6 °F 86% 30.15 in 10.0 mi Calm Calm - N/A   Unknown